,,,PA_Meas_PMT16A,,PR_Meas_QMR101_102,,RH_Meas_QMH101,,SR_Meas_QMS101,,TA_Meas_QMH101,,GenWind,,GenWind,
date,time,status,PA,status,PR,status,RH,status,SR,status,TA,status,DirAvg,status,SpdAvg,
2014-09-07, 00:00:05,VALID,1011.16,VALID,0,VALID,84.6001,VALID,0,VALID,22.5251,VALID,359,VALID,0,
2014-09-07, 00:01:05,VALID,1011.16,VALID,0,VALID,84.6382,VALID,0,VALID,22.4667,VALID,359,VALID,0,
2014-09-07, 00:02:05,VALID,1011.15,VALID,0,VALID,84.8441,VALID,0,VALID,22.4472,VALID,359,VALID,0,
2014-09-07, 00:03:05,VALID,1011.14,VALID,0,VALID,84.7221,VALID,0,VALID,22.4277,VALID,359,VALID,0,
2014-09-07, 00:04:05,VALID,1011.15,VALID,0,VALID,85.0348,VALID,0,VALID,22.4082,VALID,359,VALID,0.000390625,
2014-09-07, 00:05:05,VALID,1011.13,VALID,0,VALID,84.5391,VALID,0,VALID,22.4099,VALID,359,VALID,0,
2014-09-07, 00:06:05,VALID,1011.11,VALID,0,VALID,84.7831,VALID,0,VALID,22.4082,VALID,359,VALID,0,
2014-09-07, 00:07:05,VALID,1011.09,VALID,0,VALID,85.05,VALID,0,VALID,22.4294,VALID,359,VALID,0,
2014-09-07, 00:08:05,VALID,1011.06,VALID,0,VALID,85.1415,VALID,0,VALID,22.3887,VALID,359,VALID,0,
2014-09-07, 00:09:05,VALID,1011.02,VALID,0,VALID,85.3474,VALID,0,VALID,22.3887,VALID,359,VALID,0,
2014-09-07, 00:10:05,VALID,1011.03,VALID,0,VALID,85.744,VALID,0,VALID,22.3904,VALID,359,VALID,0,
2014-09-07, 00:11:05,VALID,1011,VALID,0,VALID,86.0948,VALID,0,VALID,22.3693,VALID,359,VALID,0,
2014-09-07, 00:12:05,VALID,1010.97,VALID,0,VALID,86.4837,VALID,0,VALID,22.3498,VALID,359,VALID,0,
2014-09-07, 00:13:05,VALID,1010.98,VALID,0,VALID,86.3159,VALID,0,VALID,22.3303,VALID,359,VALID,0,
2014-09-07, 00:14:05,VALID,1011.01,VALID,0,VALID,86.4074,VALID,0,VALID,22.3108,VALID,359,VALID,0,
2014-09-07, 00:15:05,VALID,1010.95,VALID,0,VALID,86.7734,VALID,0,VALID,22.3303,VALID,359,VALID,0,
2014-09-07, 00:16:05,VALID,1010.97,VALID,0,VALID,86.7582,VALID,0,VALID,22.3303,VALID,359,VALID,0,
2014-09-07, 00:17:05,VALID,1010.92,VALID,0,VALID,86.6057,VALID,0,VALID,22.3498,VALID,359,VALID,0,
2014-09-07, 00:18:05,VALID,1010.93,VALID,0,VALID,86.2625,VALID,0,VALID,22.3693,VALID,359,VALID,0,
2014-09-07, 00:19:05,VALID,1010.9,VALID,0,VALID,85.8431,VALID,0,VALID,22.3887,VALID,359,VALID,0,
2014-09-07, 00:20:05,VALID,1010.9,VALID,0,VALID,85.7211,VALID,0,VALID,22.4277,VALID,359,VALID,0,
2014-09-07, 00:21:05,VALID,1010.93,VALID,0,VALID,85.4847,VALID,0,VALID,22.4684,VALID,359,VALID,0,
2014-09-07, 00:22:05,VALID,1010.9,VALID,0,VALID,85.3551,VALID,0,VALID,22.4878,VALID,359,VALID,0,
2014-09-07, 00:23:05,VALID,1010.92,VALID,0,VALID,85.3551,VALID,0,VALID,22.5056,VALID,359,VALID,0,
2014-09-07, 00:24:05,VALID,1010.96,VALID,0,VALID,85.3398,VALID,0,VALID,22.5251,VALID,359,VALID,0,
2014-09-07, 00:25:05,VALID,1010.98,VALID,0,VALID,85.3093,VALID,0,VALID,22.5251,VALID,359,VALID,0,
2014-09-07, 00:26:05,VALID,1010.97,VALID,0,VALID,85.2178,VALID,0,VALID,22.564,VALID,359,VALID,0,
2014-09-07, 00:27:05,VALID,1010.95,VALID,0,VALID,84.9356,VALID,0,VALID,22.5835,VALID,359,VALID,0,
2014-09-07, 00:28:05,VALID,1010.95,VALID,0,VALID,85.1415,VALID,0,VALID,22.6225,VALID,359,VALID,0,
2014-09-07, 00:29:05,VALID,1010.91,VALID,0,VALID,85.1797,VALID,0,VALID,22.6225,VALID,359,VALID,0,
2014-09-07, 00:30:05,VALID,1010.94,VALID,0,VALID,85.2254,VALID,0,VALID,22.6013,VALID,359,VALID,0,
2014-09-07, 00:31:05,VALID,1010.91,VALID,0,VALID,85.0958,VALID,0,VALID,22.6225,VALID,359,VALID,0,
2014-09-07, 00:32:05,VALID,1010.89,VALID,0,VALID,85.2788,VALID,0,VALID,22.6225,VALID,359,VALID,0,
2014-09-07, 00:33:05,VALID,1010.89,VALID,0,VALID,85.2788,VALID,0,VALID,22.603,VALID,359,VALID,0,
2014-09-07, 00:34:05,VALID,1010.86,VALID,0,VALID,85.2178,VALID,0,VALID,22.5835,VALID,359,VALID,0,
2014-09-07, 00:35:05,VALID,1010.85,VALID,0,VALID,85.3627,VALID,0,VALID,22.603,VALID,359,VALID,0,
2014-09-07, 00:36:05,VALID,1010.85,VALID,0,VALID,84.7069,VALID,0,VALID,22.5835,VALID,140,VALID,1.42148,
2014-09-07, 00:37:05,VALID,1010.84,VALID,0,VALID,84.6535,VALID,0,VALID,22.6225,VALID,146,VALID,0.470313,
2014-09-07, 00:38:05,VALID,1010.83,VALID,0,VALID,84.7526,VALID,0,VALID,22.603,VALID,146,VALID,0.436719,
2014-09-07, 00:39:05,VALID,1010.79,VALID,0,VALID,84.684,VALID,0,VALID,22.6437,VALID,146,VALID,0.535547,
2014-09-07, 00:40:05,VALID,1010.8,VALID,0,VALID,84.8441,VALID,0,VALID,22.642,VALID,146,VALID,0.692578,
2014-09-07, 00:41:05,VALID,1010.78,VALID,0,VALID,84.7831,VALID,0,VALID,22.642,VALID,146,VALID,0.9375,
2014-09-07, 00:42:05,VALID,1010.76,VALID,0,VALID,84.5544,VALID,0,VALID,22.6809,VALID,146,VALID,0.536328,
2014-09-07, 00:43:05,VALID,1010.76,VALID,0,VALID,84.6535,VALID,0,VALID,22.7004,VALID,146,VALID,0,
2014-09-07, 00:44:05,VALID,1010.79,VALID,0,VALID,84.4476,VALID,0,VALID,22.7216,VALID,146,VALID,0.934375,
2014-09-07, 00:45:05,VALID,1010.79,VALID,0,VALID,84.9051,VALID,0,VALID,22.7216,VALID,146,VALID,0.538672,
2014-09-07, 00:46:05,VALID,1010.74,VALID,0,VALID,85.0805,VALID,0,VALID,22.7004,VALID,146,VALID,0.318359,
2014-09-07, 00:47:05,VALID,1010.76,VALID,0,VALID,84.9814,VALID,0,VALID,22.7004,VALID,146,VALID,0.498047,
2014-09-07, 00:48:05,VALID,1010.72,VALID,0,VALID,84.9433,VALID,0,VALID,22.7004,VALID,146,VALID,0.308203,
2014-09-07, 00:49:05,VALID,1010.73,VALID,0,VALID,85.0653,VALID,0,VALID,22.7004,VALID,146,VALID,0.369141,
2014-09-07, 00:50:05,VALID,1010.73,VALID,0,VALID,85.2635,VALID,0,VALID,22.7004,VALID,146,VALID,0.545313,
2014-09-07, 00:51:05,VALID,1010.69,VALID,0,VALID,85.3779,VALID,0,VALID,22.7216,VALID,146,VALID,0.508984,
2014-09-07, 00:52:05,VALID,1010.66,VALID,0,VALID,85.3627,VALID,0,VALID,22.6809,VALID,146,VALID,0.323438,
2014-09-07, 00:53:05,VALID,1010.64,VALID,0,VALID,85.2788,VALID,0,VALID,22.7216,VALID,146,VALID,0,
2014-09-07, 00:54:05,VALID,1010.66,VALID,0,VALID,85.3398,VALID,0,VALID,22.7199,VALID,146,VALID,0.1625,
2014-09-07, 00:55:05,VALID,1010.66,VALID,0,VALID,85.3779,VALID,0,VALID,22.7394,VALID,146,VALID,0.180078,
2014-09-07, 00:56:05,VALID,1010.65,VALID,0,VALID,85.3093,VALID,0,VALID,22.7588,VALID,146,VALID,0.264844,
2014-09-07, 00:57:05,VALID,1010.67,VALID,0,VALID,85.4923,VALID,0,VALID,22.7588,VALID,146,VALID,0.576172,
2014-09-07, 00:58:05,VALID,1010.67,VALID,0,VALID,85.5152,VALID,0,VALID,22.7588,VALID,67,VALID,0.699219,
2014-09-07, 00:59:05,VALID,1010.68,VALID,0,VALID,85.4694,VALID,0,VALID,22.7394,VALID,67,VALID,0.578516,
2014-09-07, 01:00:05,VALID,1010.69,VALID,0,VALID,85.233,VALID,0,VALID,22.7199,VALID,67,VALID,0.726953,
2014-09-07, 01:01:05,VALID,1010.67,VALID,0,VALID,85.172,VALID,0,VALID,22.6402,VALID,67,VALID,0.685547,
2014-09-07, 01:02:05,VALID,1010.69,VALID,0,VALID,85.2254,VALID,0,VALID,22.6225,VALID,67,VALID,0.846875,
2014-09-07, 01:03:05,VALID,1010.65,VALID,0,VALID,85.5228,VALID,0,VALID,22.5818,VALID,67,VALID,0.761719,
2014-09-07, 01:04:05,VALID,1010.65,VALID,0,VALID,86.1405,VALID,0,VALID,22.564,VALID,67,VALID,0.663672,
2014-09-07, 01:05:05,VALID,1010.65,VALID,0,VALID,86.0948,VALID,0,VALID,22.5446,VALID,67,VALID,0.719141,
2014-09-07, 01:06:05,VALID,1010.65,VALID,0,VALID,86.4379,VALID,0,VALID,22.5056,VALID,67,VALID,0.492969,
2014-09-07, 01:07:05,VALID,1010.67,VALID,0,VALID,86.7277,VALID,0,VALID,22.4861,VALID,67,VALID,0.201562,
2014-09-07, 01:08:05,VALID,1010.68,VALID,0,VALID,87.1547,VALID,0,VALID,22.4667,VALID,67,VALID,0,
2014-09-07, 01:09:05,VALID,1010.68,VALID,0,VALID,87.475,VALID,0,VALID,22.4472,VALID,67,VALID,0,
2014-09-07, 01:10:05,VALID,1010.67,VALID,0,VALID,87.6199,VALID,0,VALID,22.4082,VALID,67,VALID,0,
2014-09-07, 01:11:05,VALID,1010.63,VALID,0,VALID,87.719,VALID,0,VALID,22.3887,VALID,67,VALID,0.00507812,
2014-09-07, 01:12:05,VALID,1010.63,VALID,0,VALID,87.8944,VALID,0,VALID,22.3887,VALID,67,VALID,0.579297,
2014-09-07, 01:13:05,VALID,1010.62,VALID,0,VALID,88.3749,VALID,0,VALID,22.3887,VALID,67,VALID,0.310547,
2014-09-07, 01:14:05,VALID,1010.56,VALID,0,VALID,88.3596,VALID,0,VALID,22.3498,VALID,67,VALID,0.390234,
2014-09-07, 01:15:05,VALID,1010.55,VALID,0,VALID,88.8019,VALID,0,VALID,22.3303,VALID,67,VALID,0.398047,
2014-09-07, 01:16:05,VALID,1010.53,VALID,0,VALID,88.6113,VALID,0,VALID,22.2914,VALID,67,VALID,0.616406,
2014-09-07, 01:17:05,VALID,1010.52,VALID,0,VALID,88.962,VALID,0,VALID,22.2702,VALID,67,VALID,0.425,
2014-09-07, 01:18:05,VALID,1010.5,VALID,0,VALID,89.0002,VALID,0,VALID,22.2914,VALID,67,VALID,0.655859,
2014-09-07, 01:19:05,VALID,1010.5,VALID,0,VALID,88.7409,VALID,0,VALID,22.2702,VALID,67,VALID,0.68125,
2014-09-07, 01:20:05,VALID,1010.46,VALID,0,VALID,88.657,VALID,0,VALID,22.2719,VALID,67,VALID,0.539063,
2014-09-07, 01:21:05,VALID,1010.44,VALID,0,VALID,88.0241,VALID,0,VALID,22.3108,VALID,67,VALID,0.724219,
2014-09-07, 01:22:05,VALID,1010.43,VALID,0,VALID,88.291,VALID,0,VALID,22.3303,VALID,67,VALID,0.500781,
2014-09-07, 01:23:05,VALID,1010.42,VALID,0,VALID,87.7724,VALID,0,VALID,22.3303,VALID,67,VALID,0.380469,
2014-09-07, 01:24:05,VALID,1010.36,VALID,0,VALID,87.3606,VALID,0,VALID,22.2897,VALID,67,VALID,0.286719,
2014-09-07, 01:25:05,VALID,1010.36,VALID,0,VALID,86.0109,VALID,0,VALID,22.3108,VALID,67,VALID,0.655078,
2014-09-07, 01:26:05,VALID,1010.36,VALID,0,VALID,85.7821,VALID,0,VALID,22.3693,VALID,67,VALID,0.261328,
2014-09-07, 01:27:05,VALID,1010.33,VALID,0,VALID,85.805,VALID,0,VALID,22.4082,VALID,67,VALID,0.105469,
2014-09-07, 01:28:05,VALID,1010.3,VALID,0,VALID,85.561,VALID,0,VALID,22.4472,VALID,67,VALID,0.258594,
2014-09-07, 01:29:05,VALID,1010.28,VALID,0,VALID,85.8889,VALID,0,VALID,22.4455,VALID,67,VALID,0.518359,
2014-09-07, 01:30:05,VALID,1010.26,VALID,0,VALID,85.6982,VALID,0,VALID,22.4667,VALID,67,VALID,0.438672,
2014-09-07, 01:31:05,VALID,1010.25,VALID,0,VALID,85.1492,VALID,0,VALID,22.4472,VALID,67,VALID,0.598047,
2014-09-07, 01:32:05,VALID,1010.21,VALID,0,VALID,85.4313,VALID,0,VALID,22.4861,VALID,67,VALID,0.0660156,
2014-09-07, 01:33:05,VALID,1010.21,VALID,0,VALID,85.6677,VALID,0,VALID,22.4861,VALID,67,VALID,0.339063,
2014-09-07, 01:34:05,VALID,1010.19,VALID,0,VALID,85.9499,VALID,0,VALID,22.5056,VALID,67,VALID,0.455078,
2014-09-07, 01:35:05,VALID,1010.17,VALID,0,VALID,85.4771,VALID,0,VALID,22.4861,VALID,67,VALID,0.473047,
2014-09-07, 01:36:05,VALID,1010.18,VALID,0,VALID,85.6143,VALID,0,VALID,22.5056,VALID,67,VALID,0.219922,
2014-09-07, 01:37:05,VALID,1010.17,VALID,0,VALID,85.6906,VALID,0,VALID,22.4844,VALID,67,VALID,0.203906,
2014-09-07, 01:38:05,VALID,1010.18,VALID,0,VALID,85.866,VALID,0,VALID,22.4861,VALID,67,VALID,0.0203125,
2014-09-07, 01:39:05,VALID,1010.18,VALID,0,VALID,85.7668,VALID,0,VALID,22.4861,VALID,67,VALID,0.0484375,
2014-09-07, 01:40:05,VALID,1010.2,VALID,0,VALID,85.7211,VALID,0,VALID,22.4667,VALID,67,VALID,0,
2014-09-07, 01:41:05,VALID,1010.22,VALID,0,VALID,85.0805,VALID,0,VALID,22.4277,VALID,67,VALID,0.385547,
2014-09-07, 01:42:05,VALID,1010.25,VALID,0,VALID,85.4618,VALID,0,VALID,22.4455,VALID,67,VALID,0.158594,
2014-09-07, 01:43:05,VALID,1010.27,VALID,0,VALID,84.9967,VALID,0,VALID,22.4472,VALID,67,VALID,0.559766,
2014-09-07, 01:44:05,VALID,1010.29,VALID,0,VALID,84.9433,VALID,0,VALID,22.4472,VALID,67,VALID,0.2625,
2014-09-07, 01:45:05,VALID,1010.28,VALID,0,VALID,85.3017,VALID,0,VALID,22.4667,VALID,67,VALID,0.0949219,
2014-09-07, 01:46:05,VALID,1010.3,VALID,0,VALID,85.3017,VALID,0,VALID,22.4667,VALID,67,VALID,0.152344,
2014-09-07, 01:47:05,VALID,1010.33,VALID,0,VALID,85.1568,VALID,0,VALID,22.4684,VALID,67,VALID,0.149219,
2014-09-07, 01:48:05,VALID,1010.33,VALID,0,VALID,85.1644,VALID,0,VALID,22.4667,VALID,67,VALID,0,
2014-09-07, 01:49:05,VALID,1010.31,VALID,0,VALID,85.3932,VALID,0,VALID,22.4667,VALID,67,VALID,0.0238281,
2014-09-07, 01:50:05,VALID,1010.32,VALID,0,VALID,85.233,VALID,0,VALID,22.4667,VALID,67,VALID,0.176953,
2014-09-07, 01:51:05,VALID,1010.31,VALID,0,VALID,85.05,VALID,0,VALID,22.426,VALID,67,VALID,0,
2014-09-07, 01:52:05,VALID,1010.33,VALID,0,VALID,84.9433,VALID,0,VALID,22.4472,VALID,67,VALID,0,
2014-09-07, 01:53:05,VALID,1010.33,VALID,0,VALID,84.989,VALID,0,VALID,22.4472,VALID,67,VALID,0,
2014-09-07, 01:54:05,VALID,1010.31,VALID,0,VALID,84.9356,VALID,0,VALID,22.4472,VALID,67,VALID,0,
2014-09-07, 01:55:05,VALID,1010.3,VALID,0,VALID,85.3169,VALID,0.112112,VALID,22.4472,VALID,67,VALID,0,
2014-09-07, 01:56:05,VALID,1010.28,VALID,0,VALID,85.4466,VALID,0,VALID,22.4472,VALID,67,VALID,0,
2014-09-07, 01:57:05,VALID,1010.27,VALID,0,VALID,85.2102,VALID,0,VALID,22.4065,VALID,67,VALID,0,
2014-09-07, 01:58:05,VALID,1010.27,VALID,0,VALID,85.2025,VALID,0,VALID,22.4065,VALID,67,VALID,0,
2014-09-07, 01:59:05,VALID,1010.24,VALID,0,VALID,85.7974,VALID,0,VALID,22.4472,VALID,67,VALID,0,
2014-09-07, 02:00:05,VALID,1010.25,VALID,0,VALID,86.293,VALID,0,VALID,22.4667,VALID,67,VALID,0,
2014-09-07, 02:01:05,VALID,1010.27,VALID,0,VALID,86.6972,VALID,0,VALID,22.4861,VALID,67,VALID,0,
2014-09-07, 02:02:05,VALID,1010.25,VALID,0,VALID,86.7429,VALID,0,VALID,22.4667,VALID,67,VALID,0,
2014-09-07, 02:03:05,VALID,1010.25,VALID,0,VALID,86.2778,VALID,0,VALID,22.4667,VALID,67,VALID,0,
2014-09-07, 02:04:05,VALID,1010.23,VALID,0,VALID,86.5294,VALID,0,VALID,22.4667,VALID,67,VALID,0,
2014-09-07, 02:05:05,VALID,1010.18,VALID,0,VALID,87.0098,VALID,0,VALID,22.4861,VALID,67,VALID,0,
2014-09-07, 02:06:05,VALID,1010.18,VALID,0,VALID,87.2386,VALID,0,VALID,22.465,VALID,67,VALID,0,
2014-09-07, 02:07:05,VALID,1010.16,VALID,0,VALID,87.0861,VALID,0,VALID,22.4667,VALID,67,VALID,0,
2014-09-07, 02:08:05,VALID,1010.13,VALID,0,VALID,86.9412,VALID,0,VALID,22.4667,VALID,67,VALID,0,
2014-09-07, 02:09:05,VALID,1010.12,VALID,0,VALID,86.7734,VALID,0.112112,VALID,22.426,VALID,67,VALID,0,
2014-09-07, 02:10:05,VALID,1010.09,VALID,0,VALID,86.6896,VALID,0,VALID,22.4472,VALID,67,VALID,0,
2014-09-07, 02:11:05,VALID,1010.09,VALID,0,VALID,86.6972,VALID,0,VALID,22.4277,VALID,67,VALID,0,
2014-09-07, 02:12:05,VALID,1010.05,VALID,0,VALID,86.5523,VALID,0,VALID,22.3887,VALID,67,VALID,0,
2014-09-07, 02:13:05,VALID,1010.01,VALID,0,VALID,86.5599,VALID,0,VALID,22.3887,VALID,67,VALID,0,
2014-09-07, 02:14:05,VALID,1010.02,VALID,0,VALID,86.8192,VALID,0,VALID,22.3693,VALID,67,VALID,0,
2014-09-07, 02:15:05,VALID,1010.02,VALID,0,VALID,86.926,VALID,0,VALID,22.3481,VALID,67,VALID,0,
2014-09-07, 02:16:05,VALID,1009.99,VALID,0,VALID,87.2844,VALID,0,VALID,22.3887,VALID,67,VALID,0,
2014-09-07, 02:17:05,VALID,1010.04,VALID,0,VALID,87.5742,VALID,0,VALID,22.4082,VALID,67,VALID,0,
2014-09-07, 02:18:05,VALID,1010.04,VALID,0,VALID,87.4445,VALID,0,VALID,22.3887,VALID,67,VALID,0,
2014-09-07, 02:19:05,VALID,1010.06,VALID,0,VALID,86.3845,VALID,0,VALID,22.3498,VALID,67,VALID,0,
2014-09-07, 02:20:05,VALID,1010.05,VALID,0,VALID,85.8202,VALID,0,VALID,22.3693,VALID,67,VALID,0,
2014-09-07, 02:21:04,VALID,1010.04,VALID,0,VALID,85.1949,VALID,0,VALID,22.3286,VALID,68,VALID,0,
2014-09-07, 02:22:04,VALID,1010.04,VALID,0,VALID,85.0958,VALID,0,VALID,22.3693,VALID,68,VALID,0,
2014-09-07, 02:23:04,VALID,1010.07,VALID,0,VALID,85.4923,VALID,0,VALID,22.3887,VALID,68,VALID,0,
2014-09-07, 02:24:04,VALID,1010.05,VALID,0,VALID,86.0643,VALID,0,VALID,22.4277,VALID,68,VALID,0,
2014-09-07, 02:25:04,VALID,1010.06,VALID,0,VALID,86.0033,VALID,0,VALID,22.4065,VALID,68,VALID,0,
2014-09-07, 02:26:04,VALID,1010.09,VALID,0,VALID,85.9041,VALID,0,VALID,22.4277,VALID,68,VALID,0,
2014-09-07, 02:27:04,VALID,1010.09,VALID,0,VALID,85.7897,VALID,0.112112,VALID,22.4065,VALID,68,VALID,0,
2014-09-07, 02:28:04,VALID,1010.11,VALID,0,VALID,85.8736,VALID,0,VALID,22.4277,VALID,68,VALID,0,
2014-09-07, 02:29:04,VALID,1010.14,VALID,0,VALID,86.0109,VALID,0,VALID,22.4082,VALID,68,VALID,0,
2014-09-07, 02:30:04,VALID,1010.12,VALID,0,VALID,85.3856,VALID,0.112112,VALID,22.4082,VALID,68,VALID,0,
2014-09-07, 02:31:04,VALID,1010.13,VALID,0,VALID,85.5381,VALID,0,VALID,22.4277,VALID,68,VALID,0,
2014-09-07, 02:32:04,VALID,1010.12,VALID,0,VALID,85.4542,VALID,0,VALID,22.4082,VALID,68,VALID,0,
2014-09-07, 02:33:04,VALID,1010.13,VALID,0,VALID,85.1644,VALID,0.112112,VALID,22.387,VALID,68,VALID,0,
2014-09-07, 02:34:04,VALID,1010.1,VALID,0,VALID,85.2102,VALID,0.112112,VALID,22.3887,VALID,68,VALID,0,
2014-09-07, 02:35:04,VALID,1010.14,VALID,0,VALID,85.4618,VALID,0.112112,VALID,22.3676,VALID,68,VALID,0,
2014-09-07, 02:36:04,VALID,1010.16,VALID,0,VALID,85.5304,VALID,0,VALID,22.3693,VALID,68,VALID,0,
2014-09-07, 02:37:04,VALID,1010.18,VALID,0,VALID,85.7516,VALID,0,VALID,22.3498,VALID,68,VALID,0,
2014-09-07, 02:38:04,VALID,1010.2,VALID,0,VALID,85.744,VALID,0.112112,VALID,22.3108,VALID,68,VALID,0,
2014-09-07, 02:39:04,VALID,1010.22,VALID,0,VALID,85.7287,VALID,0.112112,VALID,22.2702,VALID,68,VALID,0,
2014-09-07, 02:40:04,VALID,1010.22,VALID,0,VALID,86.0948,VALID,0.112112,VALID,22.2524,VALID,68,VALID,0,
2014-09-07, 02:41:04,VALID,1010.23,VALID,0,VALID,86.354,VALID,0,VALID,22.1923,VALID,68,VALID,0,
2014-09-07, 02:42:04,VALID,1010.18,VALID,0,VALID,86.11,VALID,0.112112,VALID,22.1533,VALID,68,VALID,0,
2014-09-07, 02:43:04,VALID,1010.19,VALID,0,VALID,86.2778,VALID,0,VALID,22.1355,VALID,68,VALID,0,
2014-09-07, 02:44:04,VALID,1010.21,VALID,0,VALID,86.537,VALID,0,VALID,22.0966,VALID,68,VALID,0,
2014-09-07, 02:45:04,VALID,1010.16,VALID,0,VALID,86.5904,VALID,0,VALID,22.0771,VALID,68,VALID,0,
2014-09-07, 02:46:04,VALID,1010.17,VALID,0,VALID,86.6133,VALID,0,VALID,22.0382,VALID,68,VALID,0,
2014-09-07, 02:47:04,VALID,1010.15,VALID,0,VALID,86.6209,VALID,0,VALID,21.9781,VALID,68,VALID,0,
2014-09-07, 02:48:04,VALID,1010.15,VALID,0,VALID,86.9183,VALID,0,VALID,21.9781,VALID,68,VALID,0,
2014-09-07, 02:49:04,VALID,1010.13,VALID,0,VALID,87.0937,VALID,0,VALID,21.9797,VALID,68,VALID,0,
2014-09-07, 02:50:04,VALID,1010.11,VALID,0,VALID,87.3454,VALID,0.112112,VALID,21.9797,VALID,68,VALID,0,
2014-09-07, 02:51:04,VALID,1010.14,VALID,0,VALID,87.2005,VALID,0.112112,VALID,21.9408,VALID,68,VALID,0,
2014-09-07, 02:52:04,VALID,1010.14,VALID,0,VALID,87.1624,VALID,0.112112,VALID,21.9018,VALID,68,VALID,0,
2014-09-07, 02:53:04,VALID,1010.15,VALID,0,VALID,87.1852,VALID,0.112112,VALID,21.8824,VALID,68,VALID,0,
2014-09-07, 02:54:04,VALID,1010.19,VALID,0,VALID,86.804,VALID,0,VALID,21.8629,VALID,68,VALID,0,
2014-09-07, 02:55:04,VALID,1010.15,VALID,0,VALID,87.1166,VALID,0.112112,VALID,21.8223,VALID,68,VALID,0,
2014-09-07, 02:56:04,VALID,1010.16,VALID,0,VALID,87.8639,VALID,0,VALID,21.8434,VALID,68,VALID,0,
2014-09-07, 02:57:04,VALID,1010.14,VALID,0,VALID,88.0775,VALID,0,VALID,21.8434,VALID,68,VALID,0,
2014-09-07, 02:58:04,VALID,1010.15,VALID,0,VALID,87.7495,VALID,0.112112,VALID,21.8256,VALID,68,VALID,0,
2014-09-07, 02:59:04,VALID,1010.14,VALID,0,VALID,87.4445,VALID,0,VALID,21.785,VALID,68,VALID,0,
2014-09-07, 03:00:04,VALID,1010.14,VALID,0,VALID,87.5055,VALID,0.112112,VALID,21.7655,VALID,68,VALID,0,
2014-09-07, 03:01:04,VALID,1010.14,VALID,0,VALID,88.1842,VALID,0,VALID,21.7655,VALID,68,VALID,0,
2014-09-07, 03:02:04,VALID,1010.14,VALID,0,VALID,88.6799,VALID,0.112112,VALID,21.7655,VALID,68,VALID,0,
2014-09-07, 03:03:04,VALID,1010.16,VALID,0,VALID,89.2137,VALID,0,VALID,21.746,VALID,68,VALID,0,
2014-09-07, 03:04:04,VALID,1010.18,VALID,0,VALID,89.6407,VALID,0.112112,VALID,21.746,VALID,68,VALID,0,
2014-09-07, 03:05:04,VALID,1010.17,VALID,0,VALID,89.778,VALID,0.112112,VALID,21.746,VALID,68,VALID,0,
2014-09-07, 03:06:04,VALID,1010.16,VALID,0,VALID,89.8085,VALID,0,VALID,21.7266,VALID,68,VALID,0,
2014-09-07, 03:07:04,VALID,1010.15,VALID,0,VALID,89.9153,VALID,0.112112,VALID,21.7071,VALID,68,VALID,0,
2014-09-07, 03:08:04,VALID,1010.17,VALID,0,VALID,90.3499,VALID,0.112112,VALID,21.7054,VALID,68,VALID,0,
2014-09-07, 03:09:04,VALID,1010.15,VALID,0,VALID,90.9447,VALID,0,VALID,21.7071,VALID,68,VALID,0,
2014-09-07, 03:10:04,VALID,1010.14,VALID,0,VALID,91.8903,VALID,0.112112,VALID,21.7071,VALID,68,VALID,0,
2014-09-07, 03:11:04,VALID,1010.17,VALID,0,VALID,92.6071,VALID,0.112112,VALID,21.7071,VALID,68,VALID,0,
2014-09-07, 03:12:04,VALID,1010.17,VALID,0,VALID,93.0723,VALID,0.112112,VALID,21.7071,VALID,68,VALID,0,
2014-09-07, 03:13:04,VALID,1010.18,VALID,0,VALID,93.9035,VALID,0.112112,VALID,21.6876,VALID,68,VALID,0,
2014-09-07, 03:14:04,VALID,1010.19,VALID,0,VALID,94.8262,VALID,0.112112,VALID,21.6876,VALID,68,VALID,0,
2014-09-07, 03:15:04,VALID,1010.18,VALID,0,VALID,96.2599,VALID,0,VALID,21.686,VALID,68,VALID,0,
2014-09-07, 03:16:04,VALID,1010.17,VALID,0,VALID,97.0148,VALID,0,VALID,21.686,VALID,68,VALID,0,
2014-09-07, 03:17:04,VALID,1010.16,VALID,0,VALID,97.1902,VALID,0.112112,VALID,21.686,VALID,68,VALID,0,
2014-09-07, 03:18:04,VALID,1010.13,VALID,0,VALID,97.2207,VALID,0.112112,VALID,21.686,VALID,68,VALID,0,
2014-09-07, 03:19:04,VALID,1010.11,VALID,0,VALID,97.1979,VALID,0.112112,VALID,21.686,VALID,68,VALID,0,
2014-09-07, 03:20:04,VALID,1010.12,VALID,0,VALID,97.2512,VALID,0.112112,VALID,21.6665,VALID,68,VALID,0,
2014-09-07, 03:21:04,VALID,1010.12,VALID,0,VALID,97.4953,VALID,0,VALID,21.6876,VALID,68,VALID,0,
2014-09-07, 03:22:04,VALID,1010.13,VALID,0,VALID,97.8155,VALID,0.112112,VALID,21.6665,VALID,68,VALID,0,
2014-09-07, 03:23:04,VALID,1010.17,VALID,0,VALID,98.2197,VALID,0,VALID,21.6681,VALID,68,VALID,0,
2014-09-07, 03:24:04,VALID,1010.17,VALID,0,VALID,98.7535,VALID,0,VALID,21.6876,VALID,68,VALID,0,
2014-09-07, 03:25:04,VALID,1010.17,VALID,0,VALID,99.3712,VALID,0,VALID,21.6665,VALID,68,VALID,0,
2014-09-07, 03:26:04,VALID,1010.18,VALID,0,VALID,99.7296,VALID,0.112112,VALID,21.7071,VALID,68,VALID,0,
2014-09-07, 03:27:04,VALID,1010.2,VALID,0,VALID,100.004,VALID,0,VALID,21.7071,VALID,68,VALID,0,
2014-09-07, 03:28:04,VALID,1010.24,VALID,0,VALID,100.393,VALID,0,VALID,21.7266,VALID,68,VALID,0,
2014-09-07, 03:29:04,VALID,1010.24,VALID,0,VALID,100.675,VALID,0.112112,VALID,21.7249,VALID,68,VALID,0,
2014-09-07, 03:30:04,VALID,1010.23,VALID,0,VALID,100.774,VALID,0.112112,VALID,21.7266,VALID,68,VALID,0,
2014-09-07, 03:31:04,VALID,1010.26,VALID,0,VALID,100.835,VALID,0,VALID,21.7071,VALID,68,VALID,0,
2014-09-07, 03:32:04,VALID,1010.28,VALID,0,VALID,100.858,VALID,0,VALID,21.7266,VALID,68,VALID,0,
2014-09-07, 03:33:04,VALID,1010.28,VALID,0,VALID,100.942,VALID,0.112112,VALID,21.7266,VALID,68,VALID,0,
2014-09-07, 03:34:04,VALID,1010.31,VALID,0,VALID,100.934,VALID,0.112112,VALID,21.7054,VALID,68,VALID,0,
2014-09-07, 03:35:04,VALID,1010.32,VALID,0,VALID,100.904,VALID,0.112112,VALID,21.7054,VALID,68,VALID,0,
2014-09-07, 03:36:04,VALID,1010.33,VALID,0,VALID,100.904,VALID,0,VALID,21.6876,VALID,68,VALID,0,
2014-09-07, 03:37:04,VALID,1010.37,VALID,0,VALID,100.759,VALID,0.112112,VALID,21.6681,VALID,68,VALID,0,
2014-09-07, 03:38:04,VALID,1010.36,VALID,0,VALID,100.568,VALID,0,VALID,21.6292,VALID,68,VALID,0,
2014-09-07, 03:39:04,VALID,1010.36,VALID,0,VALID,100.538,VALID,0,VALID,21.6292,VALID,68,VALID,0,
2014-09-07, 03:40:04,VALID,1010.38,VALID,0,VALID,100.736,VALID,0,VALID,21.6097,VALID,68,VALID,0,
2014-09-07, 03:41:04,VALID,1010.36,VALID,0,VALID,101.011,VALID,0.112112,VALID,21.6292,VALID,68,VALID,0,
2014-09-07, 03:42:04,VALID,1010.37,VALID,0,VALID,100.965,VALID,0,VALID,21.6681,VALID,68,VALID,0,
2014-09-07, 03:43:04,VALID,1010.37,VALID,0,VALID,100.004,VALID,0,VALID,21.746,VALID,68,VALID,0,
2014-09-07, 03:44:04,VALID,1010.37,VALID,0,VALID,97.7698,VALID,0,VALID,21.8239,VALID,68,VALID,0,
2014-09-07, 03:45:04,VALID,1010.34,VALID,0,VALID,95.2228,VALID,0,VALID,21.8223,VALID,68,VALID,0,
2014-09-07, 03:46:04,VALID,1010.32,VALID,0,VALID,93.5527,VALID,0.112112,VALID,21.8612,VALID,68,VALID,0,
2014-09-07, 03:47:04,VALID,1010.33,VALID,0,VALID,93.1715,VALID,0.112112,VALID,21.8612,VALID,68,VALID,0,
2014-09-07, 03:48:04,VALID,1010.36,VALID,0,VALID,93.0189,VALID,0.112112,VALID,21.8824,VALID,68,VALID,0,
2014-09-07, 03:49:04,VALID,1010.36,VALID,0,VALID,92.8512,VALID,0.112112,VALID,21.9018,VALID,68,VALID,0,
2014-09-07, 03:50:04,VALID,1010.35,VALID,0,VALID,92.3631,VALID,0.112112,VALID,21.9002,VALID,68,VALID,0,
2014-09-07, 03:51:04,VALID,1010.42,VALID,0,VALID,92.2487,VALID,0.112112,VALID,21.9196,VALID,68,VALID,0,
2014-09-07, 03:52:04,VALID,1010.42,VALID,0,VALID,92.2487,VALID,0.112112,VALID,21.9391,VALID,68,VALID,0,
2014-09-07, 03:53:04,VALID,1010.42,VALID,0,VALID,92.142,VALID,0.112112,VALID,21.9603,VALID,68,VALID,0,